Regional Weather Roundup
Issued by NWS Upton, NY

Current Version | Previous Version | Text Only | Print | Product List | Glossary Off
Versions: 1 2 3 4 5 6 7 8 9 10 11 12 13 14 15 16 17 18 19 20 21 22 23 24 25 26 27 28
000 ASUS41 KOKX 281605 RWROKX REGIONAL WEATHER ROUNDUP NATIONAL WEATHER SERVICE NEW YORK NY 1200 PM EDT SAT MAY 28 2016 NOTE: "FAIR" INDICATES FEW OR NO CLOUDS BELOW 12,000 FEET WITH NO SIGNIFICANT WEATHER AND/OR OBSTRUCTIONS TO VISIBILITY. NYZ071-072-176-178-NJZ106-104-281700- NEW YORK CITY METRO AREA CITY SKY/WX TMP DP RH WIND PRES REMARKS CENTRAL PARK SUNNY 87 66 49 VRB3 30.15S LAGUARDIA APRT MOSUNNY 88 70 55 SW7 30.11F HX 93 KENNEDY INTL MOSUNNY 78 62 57 S10 30.15R NEWARK/LIBERTY MOSUNNY 88 66 48 VRB7 30.12S HX 90 BRNX BOT. GARD N/A 88 66 48 CALM 30.11F HX 90 TETERBORO SUNNY 88 63 43 SW5 30.10S $$ NYZ177-179-078>081-281700- LONG ISLAND NEW YORK CITY SKY/WX TMP DP RH WIND PRES REMARKS FARMINGDALE SUNNY 79 64 60 S9 30.14R ISLIP MOSUNNY 77 62 59 SW12 30.14R SHIRLEY SUNNY 74 62 66 S13 30.15S RIVERHEAD N/A 82 68 61 SW3 30.12S WESTHAMPTON SUNNY 72 60 66 SW12 30.16S EAST HAMPTON FAIR 71 60 68 SW8 30.14S MONTAUK POINT N/A 70 62 76 VRB5 30.15S $$ NYZ052-065-067-281700- HUDSON VALLEY CITY SKY/WX TMP DP RH WIND PRES REMARKS WHITE PLAINS SUNNY 86 67 52 CALM 30.12F NEWBURGH SUNNY 84 72 65 W9 30.13S MONTGOMERY SUNNY 87 71 58 S8 30.10S HX 93 POUGHKEEPSIE SUNNY 87 68 52 VRB5 30.09S HX 90 ALBANY PTSUNNY 87 65 47 CALM 30.10R $$ NJZ001-105-106-008-010-013-015-019>022-104-281700- NEW JERSEY CITY SKY/WX TMP DP RH WIND PRES REMARKS NEWARK/LIBERTY MOSUNNY 88 66 48 VRB7 30.12S HX 90 TETERBORO SUNNY 88 63 43 SW5 30.10S CALDWELL SUNNY 87 66 49 S7 30.12S MORRISTOWN MOSUNNY 86 70 58 SW9 30.13S HX 90 SOMERVILLE SUNNY 86 70 58 VRB5 30.11F HX 90 SUSSEX SUNNY 86 67 52 SW6 30.12F ANDOVER N/A 86 67 52 SW6 30.13F TRENTON SUNNY 85 68 56 SW7 30.13F MILLVILLE SUNNY 81 65 58 VRB7 30.17F ATLANTIC CITY SUNNY 85 65 51 SW9 30.16F WRIGHTSTOWN SUNNY 85 68 55 W7 30.12F TOMS RIVER SUNNY 90 66 45 SW10 30.14F HX 92 BELMAR SUNNY 87 68 52 VRB6 30.15 HX 90 $$ PAZ047>061-062-071-281700- EASTERN PENNSYLVANIA CITY SKY/WX TMP DP RH WIND PRES REMARKS PHILADELPHIA SUNNY 83 65 54 SW7 30.16S ALLENTOWN SUNNY 83 68 60 SW5 30.14S SCRANTON SUNNY 87 66 49 VRB3 30.14S $$ CTZ002-004>006-009-010-012-RIZ004-006-007-MAZ004-011-015-281700- SOUTHERN NEW ENGLAND IN CT CITY SKY/WX TMP DP RH WIND PRES REMARKS BRADLEY INTL PTSUNNY 86 68 54 S5 30.09S HARTFORD SUNNY 87 68 52 S5 30.09F HX 90 DANBURY SUNNY 84 67 56 W6 30.13S WTRBRY/OXFORD MOSUNNY 84 66 54 SW6 30.16R BRIDGEPORT SUNNY 81 64 56 SW10 30.12S MERIDEN SUNNY 86 67 52 VRB7 30.10S NEW HAVEN SUNNY 76 64 66 S8 30.12S CHESTER FAIR 82 64 54 SW5 30.13S GROTON SUNNY 70 63 78 S6 30.12S WILLIMANTIC SUNNY 88 65 46 CALM 30.10F HX 90 IN RI CITY SKY/WX TMP DP RH WIND PRES REMARKS PROVIDENCE MOSUNNY 78 62 57 SE14 30.11S BLOCK ISLAND SUNNY 67 59 75 SW22G28 30.14S WESTERLY SUNNY 76 59 55 SW9 30.14R IN MA CITY SKY/WX TMP DP RH WIND PRES REMARKS BOSTON MOSUNNY 86 67 52 S7 30.07S WORCESTER NOT AVBL WESTFIELD SUNNY 84 69 60 SE5 30.09F PROVINCETOWN SUNNY 77 62 59 SW16 30.09F NANTUCKET CLOUDY 67 58 72 SW20 30.14S $$ ANZ330-335-338-340-345-350-353-355-281700- COASTAL MARINE OBSERVATIONS STATION/POSITION TIME SKY/WX TEMP WIND PRES VSBY WAVE AIR SEA DIR/SP/G HT/PER (UTC) (F) (DEG/KT/KT) (MB) (MI) (FT/S) NY HARB ENTRANCE 1450 61 58 190/ 12/ 12 1020.4 2/ 4 20S FIRE ISLAND 1450 61 58 210/ 12/ 14 1020.7 3/ 5 GREAT SOUTH BAY 1530 65 69 220/ 14/ 16 N/A 23 SSW MONTAUK P 1550 60 57 220/ 14/ 16 1020.7 3/ 5 15 E BARNEGAT LI 1522 59 N/A 3/ 5 HUDSON CANYON 1450 62 58 1022.3 2/ 5 KINGS POINT 1500 80 62 1019.9 EXECUTION ROCKS NOT AVBL CENTRAL LI SOUND NOT AVBL EASTERN LI SOUND 1500 63 54 190/ 4/ 6 N/A ROBBINS REEF 1500 76 160/ 5/ 8 1019.6 $$ >>>>>>>>>>>>>>>>>>>>>>>>>>>> KEY <<<<<<<<<<<<<<<<<<<<<<<<<<< > < > SKY/WX - SKY CONDITION/PRESENT WEATHER < > TMP - TEMPERATURE IN FAHRENHEIT < > DP - DEWPOINT IN FAHRENHEIT < > RH - RELATIVE HUMIDITY IN PERCENT < > WIND - DIRECTION AND SPEED IN MPH < > PRES - MEAN SEA LEVEL PRESSURE IN INCHES OF HG < > WCI - WIND CHILL INDEX < > VSB - VISIBILITY IN MILES < > HX - HEAT INDEX < > TC - TEMPERATURE IN CELSIUS < > VRB - VARIABLE WIND DIRECTION < > < >>>>>>>>>>>>>>>>>>>>>>>>>>>> KEY <<<<<<<<<<<<<<<<<<<<<<<<<<<

USA.gov is the U.S. government's official web portal to all federal, state and local government web resources and services.